Healy, AK

2:27 AM AKST on February 22, 2017 (GMT -0900)
McKinley National Park

Weather History for PAIN - March, 2013

Change the Weather History Date:

Monday, March 11, 2013

  Actual Average Record
Temperature  
Mean Temperature 18 °F -  
Max Temperature 21 °F 24 °F 50 °F (1984)
Min Temperature 10 °F 0 °F -36 °F (1966)
Degree Days  
Heating Degree Days 48    
Moisture  
Dew Point 17 °F    
Average Humidity 92    
Maximum Humidity 100    
Minimum Humidity 80    
Precipitation  
Precipitation 0.00 in - - ()
Sea Level Pressure  
Sea Level Pressure 30.37 in    
Wind  
Wind Speed 6 mph (North)    
Max Wind Speed 15 mph    
Max Gust Speed 21 mph    
Visibility 4 miles    
Events      
Averages and records for this station are not official NWS values.
T = Trace of Precipitation, MM = Missing Value Source: NWS Daily Summary

Daily Weather History Graph

Daily Weather History Graph

Search for Another Location

Airport or City:

Trip Planner

Search our weather history database for the weather conditions in past years. The results will help you decide how hot, cold, wet, or windy it might be!

Date:

Astronomy

Mar. 11, 2013 Rise Set
Actual Time 8:26 AM AKDT 7:46 PM AKDT
Civil Twilight 7:39 AM AKDT 8:33 PM AKDT
Nautical Twilight 6:44 AM AKDT 9:28 PM AKDT
Astronomical Twilight 5:45 AM AKDT 10:28 PM AKDT
Moon 7:53 AM AKDT (3/11) 8:32 PM AKDT (3/11)
Length of Visible Light 12h 53m
Length of Day
11h 20m
New Moon, 0% of the Moon is Illuminated
Mar 11
New Moon
Mar 19
First Quarter
Mar 27
Full
Apr 2
Last Quarter
Apr 10
New

Hourly Weather History & Observations

Time (AKDT) Temp. Windchill Dew Point Humidity Pressure Visibility Wind Dir Wind Speed Gust Speed Precip Events Conditions
12:16 AM 19.4 °F 14.3 °F 14.0 °F 80% 30.24 in 10.0 mi North 3.5 mph - N/A   Overcast
12:36 AM 17.6 °F 12.3 °F 14.0 °F 86% 30.25 in 10.0 mi WSW 3.5 mph - N/A   Overcast
12:56 AM 19.4 °F 12.8 °F 15.8 °F 86% 30.26 in 8.0 mi North 4.6 mph - N/A   Overcast
1:16 AM 19.4 °F 14.3 °F 17.6 °F 93% 30.26 in 7.0 mi NW 3.5 mph - N/A   Overcast
1:36 AM 19.4 °F 14.3 °F 17.6 °F 93% 30.27 in 5.0 mi North 3.5 mph - N/A   Overcast
1:56 AM 19.4 °F 14.3 °F 17.6 °F 93% 30.27 in 7.0 mi North 3.5 mph - N/A   Overcast
2:16 AM 19.4 °F 14.3 °F 19.4 °F 100% 30.28 in 8.0 mi North 3.5 mph - N/A   Overcast
2:36 AM 19.4 °F - 19.4 °F 100% 30.28 in 4.0 mi Calm Calm - N/A   Overcast
2:56 AM 21.2 °F 13.6 °F 19.4 °F 93% 30.29 in 4.0 mi North 5.8 mph - N/A   Overcast
3:16 AM 21.2 °F 14.9 °F 19.4 °F 93% 30.30 in 5.0 mi NNW 4.6 mph - N/A   Overcast
3:36 AM 21.2 °F 14.9 °F 19.4 °F 93% 30.30 in 4.0 mi North 4.6 mph - N/A   Overcast
3:56 AM 21.2 °F 14.9 °F 19.4 °F 93% 30.30 in 5.0 mi North 4.6 mph - N/A   Overcast
4:16 AM 21.2 °F 14.9 °F 19.4 °F 93% 30.31 in 5.0 mi North 4.6 mph - N/A   Overcast
4:36 AM 21.2 °F 14.9 °F 19.4 °F 93% 30.31 in 5.0 mi North 4.6 mph - N/A   Overcast
4:56 AM 21.2 °F 16.4 °F 19.4 °F 93% 30.31 in 4.0 mi North 3.5 mph - N/A   Overcast
5:16 AM 21.2 °F 13.6 °F 19.4 °F 93% 30.32 in 3.0 mi NNE 5.8 mph - N/A   Overcast
5:36 AM 21.2 °F 14.9 °F 19.4 °F 93% 30.32 in 4.0 mi NNE 4.6 mph - N/A   Overcast
5:56 AM 21.2 °F 13.6 °F 19.4 °F 93% 30.32 in 3.0 mi North 5.8 mph - N/A   Overcast
6:16 AM 21.2 °F 14.9 °F 19.4 °F 93% 30.33 in 3.0 mi North 4.6 mph - N/A   Overcast
6:36 AM 21.2 °F 13.6 °F 19.4 °F 93% 30.33 in 3.0 mi North 5.8 mph - N/A   Overcast
6:56 AM 21.2 °F 16.4 °F 19.4 °F 93% 30.33 in 2.5 mi North 3.5 mph - N/A   Overcast
7:16 AM 21.2 °F - 19.4 °F 93% 30.34 in 3.0 mi Calm Calm - N/A   Overcast
7:36 AM 21.2 °F 16.4 °F 19.4 °F 93% 30.34 in 5.0 mi NW 3.5 mph - N/A   Overcast
7:56 AM 21.2 °F - 19.4 °F 93% 30.34 in 6.0 mi Calm Calm - N/A   Overcast
8:16 AM 19.4 °F - 19.4 °F 100% 30.35 in 5.0 mi Calm Calm - N/A   Overcast
8:36 AM 21.2 °F 10.9 °F 19.4 °F 93% 30.35 in 1.8 mi North 9.2 mph - N/A   Overcast
8:56 AM 19.4 °F 14.3 °F 19.4 °F 100% 30.35 in 1.8 mi North 3.5 mph - N/A   Overcast
9:16 AM 19.4 °F 8.6 °F 19.4 °F 100% 30.36 in 1.2 mi North 9.2 mph 16.1 mph N/A   Overcast
9:36 AM 19.4 °F 10.4 °F 17.6 °F 93% 30.36 in 1.2 mi North 6.9 mph - N/A   Overcast
9:56 AM 19.4 °F 9.5 °F 17.6 °F 93% 30.37 in 1.2 mi North 8.1 mph - N/A   Overcast
10:16 AM 19.4 °F 10.4 °F 17.6 °F 93% 30.37 in 1.2 mi North 6.9 mph - N/A   Overcast
10:36 AM 19.4 °F 9.5 °F 17.6 °F 93% 30.38 in 1.2 mi North 8.1 mph - N/A   Overcast
10:56 AM 17.6 °F 8.2 °F 17.6 °F 100% 30.38 in 1.2 mi North 6.9 mph 17.3 mph N/A   Overcast
11:16 AM 17.6 °F 6.4 °F 15.8 °F 93% 30.39 in 1.8 mi North 9.2 mph - N/A   Overcast
11:36 AM 17.6 °F 7.3 °F 15.8 °F 93% 30.39 in 1.5 mi NNE 8.1 mph 17.3 mph N/A   Overcast
11:56 AM 17.6 °F 5.7 °F 15.8 °F 93% 30.39 in 2.5 mi North 10.4 mph - N/A   Overcast
12:16 PM 19.4 °F 8.6 °F 15.8 °F 86% 30.40 in 5.0 mi North 9.2 mph - N/A   Overcast
12:36 PM 19.4 °F 7.9 °F 15.8 °F 86% 30.39 in 2.5 mi North 10.4 mph - N/A   Overcast
12:56 PM 19.4 °F 7.9 °F 15.8 °F 86% 30.40 in 2.5 mi North 10.4 mph 18.4 mph N/A   Overcast
1:16 PM 19.4 °F 5.5 °F 15.8 °F 86% 30.40 in 3.0 mi North 15.0 mph 20.7 mph N/A   Overcast
1:36 PM 19.4 °F 6.0 °F 15.8 °F 86% 30.40 in 2.5 mi North 13.8 mph 20.7 mph N/A   Overcast
1:56 PM 19.4 °F 6.6 °F 15.8 °F 86% 30.41 in 2.5 mi North 12.7 mph 19.6 mph N/A   Overcast
2:16 PM 19.4 °F 7.9 °F 15.8 °F 86% 30.41 in 2.5 mi North 10.4 mph 20.7 mph N/A   Overcast
2:36 PM 19.4 °F 7.9 °F 15.8 °F 86% 30.42 in 2.5 mi North 10.4 mph - N/A   Overcast
2:56 PM 19.4 °F 6.6 °F 17.6 °F 93% 30.41 in 1.5 mi North 12.7 mph 19.6 mph N/A   Overcast
3:16 PM 19.4 °F 6.6 °F 17.6 °F 93% 30.42 in 2.0 mi North 12.7 mph 16.1 mph N/A   Overcast
3:36 PM 19.4 °F 6.6 °F 17.6 °F 93% 30.41 in 2.5 mi North 12.7 mph 17.3 mph N/A   Overcast
3:56 PM 19.4 °F 6.6 °F 15.8 °F 86% 30.41 in 2.0 mi NNE 12.7 mph 19.6 mph N/A   Overcast
4:16 PM 19.4 °F 6.6 °F 17.6 °F 93% 30.42 in 2.5 mi North 12.7 mph 20.7 mph N/A   Overcast
4:36 PM 19.4 °F 7.2 °F 15.8 °F 86% 30.42 in 1.8 mi North 11.5 mph 18.4 mph N/A   Overcast
4:56 PM 19.4 °F 7.2 °F 15.8 °F 86% 30.41 in 2.0 mi North 11.5 mph 17.3 mph N/A   Overcast
5:16 PM 19.4 °F 7.2 °F 15.8 °F 86% 30.41 in 2.0 mi North 11.5 mph 17.3 mph N/A   Overcast
5:36 PM 19.4 °F 6.6 °F 15.8 °F 86% 30.41 in 2.5 mi NNE 12.7 mph 18.4 mph N/A   Overcast
5:56 PM 17.6 °F 3.7 °F 15.8 °F 93% 30.42 in 2.5 mi NNE 13.8 mph 18.4 mph N/A   Overcast
6:16 PM 17.6 °F 5.7 °F 15.8 °F 93% 30.42 in 2.5 mi North 10.4 mph 18.4 mph N/A   Mostly Cloudy
6:36 PM 17.6 °F 5.7 °F 15.8 °F 93% 30.42 in 3.0 mi NNE 10.4 mph 16.1 mph N/A   Overcast
6:56 PM 17.6 °F 7.3 °F 15.8 °F 93% 30.42 in 3.0 mi North 8.1 mph - N/A   Overcast
7:16 PM 17.6 °F 5.7 °F 15.8 °F 93% 30.43 in 2.0 mi North 10.4 mph - N/A   Overcast
7:36 PM 17.6 °F 5.7 °F 15.8 °F 93% 30.43 in 2.0 mi NNE 10.4 mph 18.4 mph N/A   Overcast
7:56 PM 17.6 °F 6.4 °F 15.8 °F 93% 30.43 in 2.5 mi North 9.2 mph 19.6 mph N/A   Overcast
8:16 PM 17.6 °F 8.2 °F 15.8 °F 93% 30.43 in 2.5 mi North 6.9 mph - N/A   Overcast
8:36 PM 15.8 °F 4.2 °F 15.8 °F 100% 30.44 in 4.0 mi North 9.2 mph - N/A   Overcast
8:56 PM 15.8 °F 3.4 °F 15.8 °F 100% 30.43 in 4.0 mi North 10.4 mph 17.3 mph N/A   Overcast
9:16 PM 15.8 °F 3.4 °F 14.0 °F 93% 30.44 in 6.0 mi North 10.4 mph 17.3 mph N/A   Mostly Cloudy
9:36 PM 15.8 °F 5.1 °F 14.0 °F 93% 30.44 in 8.0 mi North 8.1 mph - N/A   Mostly Cloudy
10:16 PM 15.8 °F 6.1 °F 15.8 °F 100% 30.44 in 7.0 mi North 6.9 mph - N/A   Overcast
10:36 PM 15.8 °F 5.1 °F 14.0 °F 93% 30.44 in 7.0 mi North 8.1 mph - N/A   Overcast
10:56 PM 15.8 °F 7.2 °F 14.0 °F 93% 30.44 in 5.0 mi North 5.8 mph - N/A   Overcast
11:16 PM 15.8 °F 8.6 °F 12.2 °F 86% 30.44 in 10.0 mi North 4.6 mph - N/A   Scattered Clouds
11:36 PM 14.0 °F 8.2 °F 12.2 °F 93% 30.44 in 9.0 mi North 3.5 mph - N/A   Partly Cloudy
11:56 PM 10.4 °F 4.0 °F 8.6 °F 92% 30.45 in 10.0 mi West 3.5 mph - N/A   Scattered Clouds